Home   Weather   Coesfeld   Past weeks

Flag for Germany Past Weather in Coesfeld, North Rhine-Westphalia, Germany — Yesterday and Last 2 Weeks

Now
41 °F

Quite cool.


Feels Like: 41 °F
Forecast: 33 / 52 °F
Wind: 1 mph from Southwest

Location: Rheine-Bentlage

Current Time: Apr 27, 2017 at 10:58:18 pm

Latest Report: Apr 27, 2017 at 10:20 pm


Visibility: N/A

Pressure: 29.98 "Hg

Humidity: 76%

Dew Point: 34 °F

Location of CoesfeldLocation

Past Weather in Coesfeld — Graph

°F

Coesfeld Temperature Yesterday

Maximum temperature yesterday: 48 °F (at 3:48 pm)
Minimum temperature yesterday: 30 °F (at 6:20 am)
Average temperature yesterday: 40 °F

High & Low Weather Summary for the Past Weeks

 TemperatureHumidityPressure
High55 °F (Apr 21, 11:20 am)100% (Apr 14, 6:20 am)30.63 "Hg (Apr 14, 6:20 am)
Low27 °F (Apr 20, 6:20 am)30% (Apr 20, 3:20 pm)29.65 "Hg (Apr 25, 3:20 am)
Average44 °F71%30.10 "Hg
* Reported Apr 12 8:20 pm — Apr 27 8:20 pm, Coesfeld, Weather by CustomWeather, © 2017

Note: Actual official high and low records may vary slightly from our data, if they occured in-between our weather recording intervals... More about our weather records

Advertising

Coesfeld Weather History for the Previous 24 Hours

Scroll right to see more
 ConditionsComfort  
Time TempWeatherWind HumidityBarometerVisibility
8:20 pm
Thu, Apr 27
46 °FCool.5 mph53%29.98 "HgN/A
7:20 pm48 °FCool.8 mph50%29.95 "HgN/A
6:20 pm48 °FCool.6 mph54%29.98 "HgN/A
5:20 pm48 °FCool.7 mph50%29.98 "HgN/A
4:20 pm48 °FCool.9 mph50%29.98 "HgN/A
3:20 pm48 °FCool.10 mph50%29.98 "HgN/A
2:20 pm52 °FScattered clouds.10 mph38%29.98 "HgN/A
1:20 pm50 °FScattered clouds.7 mph43%29.98 "HgN/A
12:20 pm48 °FScattered clouds.7 mph46%30.01 "HgN/A
11:20 am48 °FScattered clouds.3 mph54%30.01 "HgN/A
10:20 am45 °FPassing clouds.7 mph61%30.01 "HgN/A
9:20 am43 °FPassing clouds.5 mph71%30.01 "HgN/A
8:20 am37 °FPassing clouds.3 mph87%30.01 "HgN/A
7:20 am32 °FPassing clouds.1 mph93%29.98 "HgN/A
6:20 am28 °FPassing clouds.1 mph100%29.98 "HgN/A
5:20 am30 °FChilly.1 mph100%29.98 "HgN/A
4:20 am30 °FChilly.5 mph100%29.98 "HgN/A
3:20 am32 °FChilly.3 mph93%29.98 "HgN/A
2:20 am34 °FChilly.3 mph93%29.98 "HgN/A
1:20 am34 °FChilly.5 mph93%29.98 "HgN/A
12:20 am36 °FChilly.2 mph87%29.98 "HgN/A
11:20 pm
Wed, Apr 26
37 °FChilly.3 mph87%29.95 "HgN/A
10:20 pm39 °FChilly.1 mph81%29.95 "HgN/A
Weather by CustomWeather, © 2017

See weather overviewHow to use our weather pages